Regional Weather Roundup
Issued by NWS

Home | Current Version | Previous Version | Graphics & Text | Print | Product List | Glossary On
Versions: 1 2 3 4 5 6 7 8 9 10 11 12 13 14 15 16 17 18 19 20 21 22 23 24 25 26 27 28 29 30 31 32 33 34 35 36 37 38 39 40 41 42 43 44 45 46 47 48 49 50
000
ASUS45 KABQ 260101
RWRNM
NEW MEXICO REGIONAL WEATHER ROUNDUP
NATIONAL WEATHER SERVICE ALBUQUERQUE NM
700 PM MDT TUE APR 25 2017

NOTE: "FAIR" MEANS FEW OR NO CLOUDS BELOW 12,000 FEET AGL WITH NO
       SIGNIFICANT WEATHER OR OBSTRUCTIONS TO VISION.

      THIS PRODUCT IS RELEASED AS TWO VERSIONS.  ONE VERSION NEAR
      THE TOP OF THE HOUR CONTAINING PRELIMINARY DATA FROM ALBUQUERQUE
      AND OTHER STATIONS.  A FINAL VERSION WITH ADDITIONAL DATA IS
      ISSUED ABOUT 10 MINUTES AFTER THE HOUR.

NMZ501-503-504-510>518-260200-
NORTHWEST PLATEAU/NORTHCENTRAL MOUNTAINS

CITY           SKY/WX    TMP DP  RH WIND       PRES   REMARKS
FARMINGTON     FAIR      50  28  42 NW22G35   29.72R
LOS ALAMOS     MOCLDY    44  29  55 NE6G17    29.71F
SANTA FE       LGT RAIN  45  42  89 N8        29.69R
TAOS             N/A     43  25  49 S5        29.71R
ANGEL FIRE     LGT SNOW  33  30  88 SW18G30   29.70S WCI  22

$$
NMZ402-403-502-505>509-260200-
WESTCENTRAL MOUNTAINS/SOUTHWEST MOUNTAINS

CITY           SKY/WX    TMP DP  RH WIND       PRES   REMARKS
GALLUP         FAIR      49  28  44 NW21G33   29.78R
GRANTS         CLOUDY    48  34  58 N17G25    29.74R
SILVER CITY    FAIR      65  32  29 W30G39    29.72R

$$
NMZ407-409-411-412-260200-
SOUTHERN DESERTS

CITY           SKY/WX    TMP DP  RH WIND       PRES   REMARKS
DEMING         FAIR      73  33  23 W35G47    29.64R
LAS CRUCES     FAIR      74  29  18 W26G45    29.62R
HOLLOMAN AFB   FAIR      76  31  19 W18G36    29.59R
ALAMOGORDO     FAIR      75  30  19 W21G29    29.57R
T OR C         FAIR      71  29  21 W30G39    29.59R

$$
NMZ519>523-260200-
CENTRAL VALLEYS/CENTRAL HIGHLANDS

CITY           SKY/WX    TMP DP  RH WIND       PRES   REMARKS
ALBUQUERQUE    LGT RAIN  47  41  80 N18       29.70R
DOUBLE EAGLE   MOCLDY    45  37  76 NW17      29.71R
MORIARTY ARPT  LGT RAIN  46  41  83 W21       29.73R
CLINES CORNERS MOCLDY    42  36  79 NW22G30   29.69R
BELEN          MOCLDY    56  35  44 NW33G45   29.67R
SOCORRO        FAIR      67  32  27 W12       29.60R

$$
NMZ524>526-539-540-260200-
SOUTHCENTRAL MOUNTAINS

CITY           SKY/WX    TMP DP  RH WIND       PRES   REMARKS
RUIDOSO        NOT AVBL

$$
NMZ527>531-260200-
NORTHEAST HIGHLANDS/NORTHEAST PLAINS

CITY           SKY/WX    TMP DP  RH WIND       PRES   REMARKS
LAS VEGAS      FAIR      48  30  49 W10       29.66R
RATON          CLOUDY    46  37  71 N17       29.60R
CLAYTON        FAIR      49  47  93 NW6       29.56S

$$
NMZ532>537-260200-
EASTCENTRAL PLAINS

CITY           SKY/WX    TMP DP  RH WIND       PRES   REMARKS
SANTA ROSA     CLOUDY    59  38  46 W30G41    29.59R
TUCUMCARI      FAIR      70  36  28 W22G28    29.47R
CANNON AFB     FAIR      69  32  25 W18G26    29.52R
CLOVIS AIRPORT FAIR      70  32  24 W23G30    29.52S

$$
NMZ028-029-538-260200-
SOUTHEAST PLAINS

CITY           SKY/WX    TMP DP  RH WIND       PRES   REMARKS
ROSWELL        FAIR      78  29  16 NW13      29.51R
ARTESIA        FAIR      81  32  17 W29G41    29.48S
CARLSBAD       FAIR      83  28  13 W20G35    29.47S
HOBBS          FAIR      79  27  14 W17G31    29.51S


$$




USA.gov is the U.S. government's official web portal to all federal, state and local government web resources and services.